Weather History for Dublin, GA

Change the Weather History Date:

Saturday, August 18, 2012

  Actual Average Record
Temperature  
Mean Temperature 80 °F -  
Max Temperature 91 °F 92 °F 100 °F (1946)
Min Temperature 69 °F 67 °F 57 °F (2007)
Cooling Degree Days 15    
Growing Degree Days 30 (Base 50)    
Moisture  
Dew Point 67 °F    
Average Humidity 68    
Maximum Humidity 94    
Minimum Humidity 40    
Precipitation  
Precipitation 0.00 in - - ()
Sea Level Pressure  
Sea Level Pressure 29.92 in    
Wind  
Wind Speed 3 mph (West)    
Max Wind Speed 10 mph    
Max Gust Speed 16 mph    
Visibility 10 miles    
Events      
Averages and records for this station are not official NWS values.
T = Trace of Precipitation, MM = Missing Value Source: NWS Daily Summary

Daily Weather History Graph

Daily Weather History Graph

Search for Another Location

Airport:

Trip Planner

Search our weather history database for the weather conditions in past years. The results will help you decide how hot, cold, wet, or windy it might be!

Date:

Astronomy

Aug. 18, 2012 Rise Set
Actual Time 6:58 AM EDT 8:12 PM EDT
Civil Twilight 6:32 AM EDT 8:38 PM EDT
Nautical Twilight 6:01 AM EDT 9:09 PM EDT
Astronomical Twilight 5:29 AM EDT 9:40 PM EDT
Moon 7:57 AM EDT (8/18) 8:37 PM EDT (8/18)
Length of Visible Light 14h 06m
Length of Day
13h 14m
New Moon, 1% of the Moon is Illuminated
Aug 18
New Moon
Aug 24
First Quarter
Aug 31
Full
Sep 8
Last Quarter
Sep 15
New

Hourly Weather History & Observations

Time (EDT) Temp. Heat Index Dew Point Humidity Pressure Visibility Wind Dir Wind Speed Gust Speed Precip Events Conditions
12:15 AM 77.0 °F - 68.0 °F 74% 29.93 in 10.0 mi West 4.6 mph - N/A   Scattered Clouds
12:55 AM 75.2 °F - 68.0 °F 78% 29.92 in 10.0 mi WNW 5.8 mph - N/A   Clear
1:15 AM 73.4 °F - 68.0 °F 83% 29.92 in 10.0 mi WNW 4.6 mph - N/A   Clear
1:35 AM 73.4 °F - 69.8 °F 88% 29.91 in 10.0 mi Calm Calm - N/A   Clear
1:55 AM 73.4 °F - 69.8 °F 88% 29.91 in 10.0 mi WNW 3.5 mph - N/A   Clear
2:15 AM 73.4 °F - 69.8 °F 88% 29.91 in 10.0 mi WNW 3.5 mph - N/A   Clear
2:35 AM 73.4 °F - 69.8 °F 88% 29.91 in 10.0 mi Calm Calm - N/A   Clear
2:55 AM 71.6 °F - 69.8 °F 94% 29.91 in 10.0 mi Calm Calm - N/A   Clear
3:15 AM 71.6 °F - 69.8 °F 94% 29.91 in 10.0 mi Calm Calm - N/A   Clear
3:35 AM 71.6 °F - 69.8 °F 94% 29.91 in 10.0 mi Calm Calm - N/A   Clear
3:55 AM 71.6 °F - 68.0 °F 88% 29.91 in 10.0 mi Calm Calm - N/A   Clear
4:15 AM 71.6 °F - 68.0 °F 88% 29.91 in 10.0 mi Calm Calm - N/A   Clear
4:35 AM 71.6 °F - 68.0 °F 88% 29.91 in 10.0 mi Calm Calm - N/A   Clear
4:55 AM 69.8 °F - 68.0 °F 94% 29.91 in 10.0 mi Calm Calm - N/A   Clear
5:35 AM 69.8 °F - 68.0 °F 94% 29.92 in 10.0 mi West 3.5 mph - N/A   Clear
5:55 AM 69.8 °F - 68.0 °F 94% 29.92 in 10.0 mi Calm Calm - N/A   Clear
6:15 AM 69.8 °F - 68.0 °F 94% 29.92 in 10.0 mi Calm Calm - N/A   Clear
6:35 AM 69.8 °F - 68.0 °F 94% 29.92 in 7.0 mi Calm Calm - N/A   Clear
6:55 AM 69.8 °F - 68.0 °F 94% 29.93 in 7.0 mi Calm Calm - N/A   Clear
7:15 AM 69.8 °F - 68.0 °F 94% 29.93 in 7.0 mi Calm Calm - N/A   Clear
7:35 AM 69.8 °F - 68.0 °F 94% 29.93 in 7.0 mi Calm Calm - N/A   Clear
8:15 AM 73.4 °F - 69.8 °F 88% 29.94 in 10.0 mi WNW 4.6 mph - N/A   Clear
8:35 AM 73.4 °F - 69.8 °F 88% 29.95 in 10.0 mi WNW 3.5 mph - N/A   Clear
8:55 AM 77.0 °F - 69.8 °F 78% 29.95 in 10.0 mi WSW 4.6 mph - N/A   Clear
9:15 AM 77.0 °F - 69.8 °F 78% 29.95 in 10.0 mi West 4.6 mph - N/A   Clear
9:35 AM 78.8 °F - 69.8 °F 74% 29.96 in 10.0 mi West 3.5 mph - N/A   Clear
9:55 AM 80.6 °F 83.9 °F 69.8 °F 70% 29.96 in 10.0 mi Calm Calm - N/A   Clear
10:15 AM 82.4 °F 85.4 °F 68.0 °F 62% 29.96 in 10.0 mi NW 4.6 mph - N/A   Clear
10:35 AM 82.4 °F 85.4 °F 68.0 °F 62% 29.96 in 10.0 mi NW 5.8 mph - N/A   Clear
10:55 AM 84.2 °F 87.3 °F 68.0 °F 58% 29.96 in 10.0 mi NW 4.6 mph - N/A   Clear
11:15 AM 86.0 °F 89.4 °F 68.0 °F 55% 29.96 in 10.0 mi West 9.2 mph - N/A   Scattered Clouds
11:35 AM 86.0 °F 87.3 °F 64.4 °F 48% 29.96 in 10.0 mi WNW 6.9 mph - N/A   Scattered Clouds
11:55 AM 86.0 °F 88.2 °F 66.2 °F 51% 29.96 in 10.0 mi West 8.1 mph - N/A   Mostly Cloudy
12:15 PM 87.8 °F 89.4 °F 64.4 °F 46% 29.96 in 10.0 mi WSW 8.1 mph - N/A   Mostly Cloudy
12:35 PM 86.0 °F 88.2 °F 66.2 °F 51% 29.96 in 10.0 mi West 8.1 mph - N/A   Overcast
12:55 PM 86.0 °F 88.2 °F 66.2 °F 51% 29.96 in 10.0 mi WNW 10.4 mph 16.1 mph N/A   Mostly Cloudy
1:15 PM 86.0 °F 88.2 °F 66.2 °F 51% 29.95 in 10.0 mi West 8.1 mph - N/A   Mostly Cloudy
1:35 PM 87.8 °F 89.4 °F 64.4 °F 46% 29.93 in 10.0 mi West 8.1 mph - N/A   Scattered Clouds
1:55 PM 87.8 °F 89.4 °F 64.4 °F 46% 29.92 in 10.0 mi NW 4.6 mph - N/A   Scattered Clouds
2:15 PM 87.8 °F 89.4 °F 64.4 °F 46% 29.92 in 10.0 mi West 3.5 mph - N/A   Scattered Clouds
2:35 PM 89.6 °F 91.1 °F 64.4 °F 43% 29.91 in 10.0 mi North 4.6 mph - N/A   Scattered Clouds
2:55 PM 89.6 °F 91.1 °F 64.4 °F 43% 29.89 in 10.0 mi West 4.6 mph - N/A   Scattered Clouds
3:15 PM 89.6 °F 91.1 °F 64.4 °F 43% 29.89 in 10.0 mi WSW 5.8 mph - N/A   Scattered Clouds
3:35 PM 89.6 °F 91.1 °F 64.4 °F 43% 29.88 in 10.0 mi West 8.1 mph - N/A   Scattered Clouds
3:55 PM 91.4 °F 93.2 °F 64.4 °F 41% 29.88 in 10.0 mi West 4.6 mph - N/A   Scattered Clouds
4:15 PM 89.6 °F 92.2 °F 66.2 °F 46% 29.88 in 10.0 mi NNW 4.6 mph - N/A   Clear
4:35 PM 91.4 °F 93.2 °F 64.4 °F 41% 29.87 in 10.0 mi WSW 5.8 mph - N/A   Scattered Clouds
4:55 PM 89.6 °F 91.1 °F 64.4 °F 43% 29.87 in 10.0 mi NW 3.5 mph - N/A   Mostly Cloudy
5:15 PM 89.6 °F 90.1 °F 62.6 °F 40% 29.86 in 10.0 mi Calm Calm - N/A   Scattered Clouds
5:55 PM 89.6 °F 90.1 °F 62.6 °F 40% 29.87 in 10.0 mi West 5.8 mph - N/A   Scattered Clouds
6:15 PM 89.6 °F 90.1 °F 62.6 °F 40% 29.87 in 10.0 mi West 3.5 mph - N/A   Clear
6:35 PM 87.8 °F 89.4 °F 64.4 °F 46% 29.87 in 10.0 mi West 4.6 mph - N/A   Scattered Clouds
6:55 PM 87.8 °F 89.4 °F 64.4 °F 46% 29.86 in 10.0 mi SSW 3.5 mph - N/A   Scattered Clouds
7:15 PM 87.8 °F 89.4 °F 64.4 °F 46% 29.87 in 10.0 mi Calm Calm - N/A   Clear
7:35 PM 86.0 °F 89.4 °F 68.0 °F 55% 29.87 in 10.0 mi Calm Calm - N/A   Clear
7:55 PM 82.4 °F 86.3 °F 69.8 °F 66% 29.88 in 10.0 mi Calm Calm - N/A   Clear
8:15 PM 82.4 °F 87.2 °F 71.6 °F 70% 29.88 in 10.0 mi Calm Calm - N/A   Clear
8:35 PM 78.8 °F - 71.6 °F 78% 29.89 in 7.0 mi Calm Calm - N/A   Clear
8:55 PM 78.8 °F - 71.6 °F 78% 29.90 in 10.0 mi Calm Calm - N/A   Clear
9:15 PM 80.6 °F 83.2 °F 68.0 °F 65% 29.91 in 10.0 mi WSW 4.6 mph - N/A   Clear
9:35 PM 80.6 °F 83.2 °F 68.0 °F 65% 29.91 in 10.0 mi West 5.8 mph - N/A   Clear
9:55 PM 80.6 °F 83.2 °F 68.0 °F 65% 29.92 in 10.0 mi WSW 5.8 mph - N/A   Clear
10:15 PM 78.8 °F - 68.0 °F 69% 29.93 in 10.0 mi Calm Calm - N/A   Clear
10:35 PM 78.8 °F - 68.0 °F 69% 29.93 in 10.0 mi West 3.5 mph - N/A   Clear
10:55 PM 78.8 °F - 68.0 °F 69% 29.93 in 10.0 mi West 3.5 mph - N/A   Clear
11:15 PM 78.8 °F - 68.0 °F 69% 29.93 in 10.0 mi Calm Calm - N/A   Clear
11:35 PM 78.8 °F - 68.0 °F 69% 29.93 in 10.0 mi Calm Calm - N/A   Clear
11:55 PM 78.8 °F - 68.0 °F 69% 29.93 in 10.0 mi WSW 3.5 mph - N/A   Clear